Location: Newark
(41.6500°N, 71.4833°W)
Time: 20:35:02
(UTC+00:00)

Transit 2A Rocket - Pass Details

Date: 27 January 2020
Orbit: 592 x 911 km, 66.7° (Epoch: 19 February)

Event Time Altitude Azimuth Distance (km) Brightness Sun altitude
Rises 16:22:38 0° 345° (NNW) 2,986 7.5 29.3°
Reaches altitude 10° 16:26:23 10° 16° (NNE) 2,143 6.9 29.4°
Maximum altitude 16:28:20 12° 40° (NE) 2,032 7.0 29.5°
Drops below altitude 10° 16:30:21 10° 64° (ENE) 2,221 7.3 29.5°
Sets 16:34:24 0° 94° (E) 3,229 8.4 29.6°
